Weather in Tenkovka

Russia / Ulyanovsk Oblast     54°20′57″N   47°18′28″E
temp.,
°C
wind,
m/s
gust,
m/s
humid.,
%
clouds,
%
prec.,
mm/h
press.,
hPa
HPBL,
m
25 july, sun
sun2501:00+11n22863 0.0 101616
04:00+10nnw22844 0.0 101810
07:00+12nnw23790 0.0 1019121
10:00+17nnw33540 0.0 1020759
13:00+19nnw344116 0.0 10211968
16:00+20nw444197 0.0 10212206
19:00+17nne226148 0.0 102261
22:00+15nw1157100 0.0 102210
26 july, mon
mon2601:00+15w1154100 0.0 102310
04:00+13wnw126389 0.0 102311
07:00+15w246568 0.0 1024129
10:00+20wnw335194 0.0 1024752
13:00+21w344924 0.0 10241399
16:00+21wnw245193 0.0 1023811
19:00+20w246178 0.0 1022230
22:00+17wsw2259100 0.0 102232
27 july, tue
tue2701:00+16wsw22629 0.0 102237
04:00+15w23633 0.0 102268
07:00+15w266592 0.0 1022154
10:00+20w575465 0.0 1021502
13:00+24wnw56455 0.0 10191970
16:00+22nw4753100 0.0 10181437
19:00+20nw3565100 0.0 1018190
22:00+16w22735 0.0 101811
28 july, wed
wed2801:00+17w226736 0.0 101821
04:00+14nw22809 0.0 101815
07:00+16nw237647 0.0 1018113
10:00+20nw33616 0.0 1018641
13:00+23nw35506 0.0 10171632
16:00+24nw464899 0.0 10151800
19:00+22w366131 0.0 1015196
22:00+17sw227481 0.0 101419
29 july, thu
thu2901:00+16s2279100 0.1 101327
04:00+17ssw3574100 0.1 101292
07:00+18wsw41272100 0.1 1011357
10:00+22w3659100 0.1 1010727
13:00+20sw4868100 0.1 1010609
16:00+18sse3992100 2.1 1009448
19:00+20s5118094 0.8 1006443
22:00+18ssw51293100 1.1 1005308